Terminal Aerodrome Forecast
Issued by NWS Albuquerque, NM

Home | Current Version | Previous Version | Text Only | Print | Product List | Glossary On
Versions: 1 2 3 4 5 6 7 8 9 10 11 12 13 14 15 16
000
FTUS45 KABQ 250200 AAA
TAFABQ
TAF AMD
KABQ 250233Z 2503/2524 35011KT P6SM BKN200
     FM250600 36006KT P6SM SCT250
     FM251800 VRB04KT P6SM SKC=

USA.gov is the U.S. government's official web portal to all federal, state and local government web resources and services.